Location: Mitty Observatory
(35.9148°N, 88.8847°W)
Time: 16:51:35
(UTC-05:00)

Hubble Space Telescope - Visible Passes

Search period start: 18 March 2019 00:00
Search period end: 28 March 2019 00:00
Orbit: 537 x 540 km, 28.5° (Epoch: 17 March)

Date Brightness Start Highest point End Pass type
(mag) Time Alt. Az. Time Alt. Az. Time Alt. Az.
23 Mar 2.9 20:10:53 10° S 20:12:24 12° SSE 20:13:02 11° SSE visible
24 Mar 2.8 19:59:34 10° SSW 20:01:47 14° SSE 20:03:28 12° SE visible
25 Mar 2.7 19:48:32 10° SSW 19:51:12 17° SSE 19:53:49 10° ESE visible
25 Mar 3.3 21:28:19 10° SW 21:29:10 15° SW 21:29:10 15° SW visible
26 Mar 2.5 19:37:39 10° SSW 19:40:37 19° SSE 19:43:37 10° ESE visible
26 Mar 2.8 21:17:44 10° WSW 21:19:28 20° SW 21:19:28 20° SW visible
27 Mar 2.3 21:07:11 10° WSW 21:09:41 25° SSW 21:09:41 25° SSW visible
